Date,TemperatureHighF,TemperatureAvgF,TemperatureLowF,DewpointHighF,DewpointAvgF,DewpointLowF,HumidityHigh,HumidityAvg,HumidityLow,PressureMaxIn,PressureMinIn,WindSpeedMaxMPH,WindSpeedAvgMPH,GustSpeedMaxMPH,PrecipitationSumIn
2013-1-1,16.0,-0.8,-19.0,9.0,-8.2,-27.0,88,71,53,0.00,40.00,9,6,15,0.00
2013-1-2,20.0,17.1,12.0,18.0,13.9,9.0,90,87,81,0.00,40.00,10,6,15,0.00
2013-1-3,21.0,14.7,7.0,18.0,7.0,1.0,90,72,42,0.00,40.00,14,9,24,0.00
2013-1-4,26.0,16.7,2.0,18.0,11.2,-2.0,88,79,66,0.00,40.00,12,7,20,0.00
2013-1-5,24.0,10.9,-7.0,20.0,6.2,-13.0,90,81,73,0.00,40.00,7,3,11,0.00
2013-1-6,25.0,16.7,11.0,16.0,9.4,5.0,89,74,53,0.00,40.00,10,5,16,0.00
2013-1-7,37.0,26.4,16.0,23.0,17.7,5.0,79,70,55,0.00,40.00,19,12,34,0.00
2013-1-8,35.0,27.4,13.0,28.0,20.9,10.0,96,77,56,0.00,40.00,11,6,21,0.02
2013-1-9,29.0,25.5,17.0,27.0,20.6,13.0,91,81,74,0.00,40.00,19,11,35,0.02
2013-1-10,46.0,34.3,19.0,29.0,18.4,11.0,86,55,34,0.00,40.00,16,11,28,0.11
2013-1-11,36.0,34.1,33.0,35.0,33.1,29.0,99,96,86,0.00,40.00,10,6,16,0.54
2013-1-12,37.0,19.2,4.0,37.0,14.3,-2.0,99,81,66,0.00,40.00,14,9,21,0.05
2013-1-13,8.0,1.8,-3.0,-2.0,-4.8,-9.0,79,73,62,0.00,40.00,9,6,14,0.01
2013-1-14,7.0,1.6,-3.0,-2.0,-5.7,-10.0,79,71,58,0.00,40.00,11,7,17,0.00
2013-1-15,23.0,12.9,3.0,8.0,2.5,-3.0,78,64,42,0.00,40.00,14,9,22,0.00
2013-1-16,23.0,13.2,-7.0,21.0,4.8,-15.0,92,70,49,0.00,40.00,14,11,25,0.01
2013-1-17,5.0,-7.3,-16.0,-11.0,-17.5,-23.0,71,60,45,0.00,40.00,12,6,20,0.01
2013-1-18,19.0,6.9,-17.0,15.0,1.9,-25.0,89,80,66,0.00,40.00,8,3,12,0.04
2013-1-19,24.0,12.7,-6.0,22.0,8.1,-13.0,93,81,67,0.00,40.00,16,9,31,0.04
2013-1-20,0.0,-9.1,-13.0,-13.0,-17.5,-20.0,71,66,50,0.00,40.00,11,6,18,0.01
2013-1-21,-13.0,-18.6,-24.0,-20.0,-28.6,-33.0,68,59,47,0.00,40.00,12,8,25,0.00
2013-1-22,-1.0,-17.2,-31.0,-17.0,-27.3,-41.0,70,59,46,0.00,40.00,8,4,13,0.00
2013-1-23,-1.0,-10.7,-22.0,-10.0,-19.8,-30.0,72,63,50,0.00,40.00,15,7,23,0.00
2013-1-24,4.0,-12.9,-34.0,-2.0,-24.1,-44.0,76,57,43,0.00,40.00,10,4,16,0.00
2013-1-25,13.0,6.1,-3.0,5.0,-0.6,-8.0,79,73,64,0.00,40.00,10,7,20,0.00
2013-1-26,17.0,2.2,-22.0,11.0,-5.2,-30.0,78,70,61,0.00,40.00,12,6,20,0.00
2013-1-27,31.0,19.4,2.0,23.0,11.8,-3.0,83,72,57,0.00,40.00,10,6,16,0.00
2013-1-28,34.0,29.2,26.0,30.0,25.7,22.0,97,87,75,0.00,40.00,11,5,16,0.00
2013-1-29,32.0,27.2,21.0,29.0,24.5,17.0,97,89,78,0.00,40.00,11,6,19,0.12
2013-1-30,21.0,10.1,3.0,17.0,4.0,-4.0,87,76,65,0.00,40.00,11,9,21,0.01
2013-1-31,3.0,-1.6,-12.0,-3.0,-11.3,-20.0,74,63,55,0.00,40.00,13,10,21,0.00
2013-2-1,1.0,-13.7,-25.0,-18.0,-24.8,-34.0,69,57,38,0.00,40.00,10,4,16,0.00
2013-2-2,11.0,-6.1,-34.0,-6.0,-27.7,-99.9,69,52,33,0.00,40.00,6,3,12,0.00
2013-2-3,8.0,-2.4,-22.0,-4.0,-12.6,-30.0,74,62,42,0.00,40.00,12,7,20,0.00
2013-2-4,9.0,-10.2,-33.0,-2.0,-21.8,-43.0,71,56,46,0.00,40.00,7,4,11,0.00
2013-2-5,17.0,5.7,-12.0,4.0,-3.2,-18.0,82,67,41,0.00,40.00,10,5,16,0.01
2013-2-6,21.0,8.5,-16.0,14.0,1.6,-23.0,86,74,51,0.00,40.00,10,4,14,0.00
2013-2-7,20.0,12.3,5.0,12.0,6.9,0.0,86,79,70,0.00,40.00,6,4,9,0.00
2013-2-8,24.0,15.1,11.0,14.0,9.1,7.0,86,77,59,0.00,40.00,9,4,15,0.00
2013-2-9,24.0,21.4,13.0,23.0,17.2,9.0,94,84,74,0.00,40.00,11,8,19,0.00
2013-2-10,27.0,25.5,24.0,25.0,23.5,22.0,95,92,85,0.00,40.00,14,8,25,0.28
2013-2-11,26.0,20.4,17.0,25.0,16.8,13.0,95,86,77,0.00,40.00,13,9,23,0.27
2013-2-12,32.0,19.9,11.0,21.0,14.8,7.0,87,81,64,0.00,40.00,10,7,17,0.00
2013-2-13,33.0,22.2,13.0,24.0,18.8,11.0,92,87,68,0.00,40.00,7,4,11,0.00
2013-2-14,24.0,15.9,3.0,22.0,7.5,-4.0,92,71,42,0.00,40.00,12,7,19,0.00
2013-2-15,12.0,3.1,-17.0,0.0,-6.1,-24.0,79,66,48,0.00,40.00,11,6,19,0.00
2013-2-16,18.0,-5.6,-26.0,0.0,-16.7,-35.0,75,60,37,0.00,40.00,4,2,11,0.00
2013-2-17,24.0,9.7,-21.0,14.0,1.1,-30.0,77,68,53,0.00,40.00,15,10,25,0.00
2013-2-18,26.0,20.1,5.0,23.0,14.4,-1.0,90,78,63,0.00,40.00,13,8,25,0.00
2013-2-19,6.0,-0.8,-9.0,-1.0,-10.9,-17.0,76,62,47,0.00,40.00,15,12,29,0.00
2013-2-20,16.0,-0.7,-13.0,-11.0,-17.4,-21.0,73,49,20,0.00,40.00,8,5,14,0.00
2013-2-21,29.0,7.6,-21.0,10.0,-5.8,-30.0,88,57,29,0.00,40.00,7,4,14,0.00
2013-2-22,27.0,19.5,12.0,23.0,16.5,7.0,91,87,79,0.00,40.00,9,6,16,0.00
2013-2-23,35.0,24.4,11.0,21.0,17.3,9.0,91,75,54,0.00,40.00,7,4,13,0.00
2013-2-24,43.0,22.2,1.0,21.0,12.2,-4.0,88,68,37,0.00,40.00,7,2,11,0.00
2013-2-25,41.0,20.8,2.0,19.0,10.6,-2.0,88,69,32,0.00,40.00,10,4,16,0.00
2013-2-26,47.0,19.8,-1.0,23.0,9.4,-6.0,86,67,32,0.00,40.00,7,2,13,0.00
2013-2-27,33.0,20.9,4.0,21.0,14.5,0.0,88,77,61,0.00,40.00,13,6,24,0.00
2013-2-28,31.0,23.2,16.0,18.0,11.0,-1.0,78,60,43,0.00,40.00,13,9,24,0.00
2013-3-1,26.0,13.7,1.0,-1.0,-6.9,-11.0,65,42,19,0.00,40.00,8,5,14,0.00
2013-3-2,35.0,6.5,-17.0,-11.0,-18.7,-26.0,64,38,8,0.00,40.00,5,2,9,0.00
2013-3-3,36.0,13.3,-11.0,7.0,-4.8,-21.0,65,46,26,0.00,40.00,11,4,16,0.00
2013-3-4,29.0,15.2,-3.0,16.0,6.0,-10.0,76,67,57,0.00,40.00,15,6,25,0.00
2013-3-5,22.0,19.6,17.0,16.0,11.3,7.0,85,70,58,0.00,40.00,11,7,19,0.00
2013-3-6,28.0,17.6,2.0,12.0,8.3,-2.0,86,68,45,0.00,40.00,9,5,16,0.01
2013-3-7,40.0,16.6,-8.0,14.0,4.1,-15.0,82,61,32,0.00,40.00,11,4,16,0.00
2013-3-8,32.0,23.1,10.0,24.0,17.0,7.0,89,77,65,0.00,40.00,10,5,16,0.00
2013-3-9,33.0,28.9,22.0,31.0,26.9,19.0,98,92,83,0.00,40.00,12,4,19,0.27
2013-3-10,31.0,27.1,21.0,31.0,22.5,15.0,98,83,68,0.00,40.00,11,8,18,0.21
2013-3-11,23.0,20.6,18.0,18.0,14.8,12.0,87,78,65,0.00,40.00,10,6,16,0.00
2013-3-12,20.0,15.8,9.0,15.0,7.8,2.0,85,71,56,0.00,40.00,12,7,21,0.00
2013-3-13,35.0,16.4,-6.0,9.0,1.3,-12.0,76,55,32,0.00,40.00,9,4,15,0.00
2013-3-14,39.0,19.6,-7.0,29.0,10.4,-13.0,85,68,48,0.00,40.00,12,6,19,0.00
2013-3-15,31.0,19.1,10.0,27.0,6.8,-3.0,85,61,33,0.00,40.00,10,8,19,0.01
2013-3-16,18.0,8.5,-1.0,5.0,-2.4,-11.0,80,62,38,0.00,40.00,17,7,26,0.01
2013-3-17,24.0,3.7,-24.0,10.0,-10.3,-33.0,75,54,28,0.00,40.00,14,7,22,0.00
2013-3-18,27.0,22.6,17.0,24.0,17.0,7.0,90,80,52,0.00,40.00,14,10,30,0.03
2013-3-19,22.0,15.6,10.0,18.0,6.3,1.0,90,67,43,0.00,40.00,19,14,32,0.01
2013-3-20,17.0,11.0,4.0,4.0,0.6,-2.0,76,63,51,0.00,40.00,13,9,23,0.00
2013-3-21,33.0,19.6,11.0,11.0,6.0,3.0,72,57,37,0.00,40.00,8,5,15,0.00
2013-3-22,40.0,18.7,-3.0,20.0,7.5,-9.0,78,64,38,0.00,40.00,7,3,12,0.00
2013-3-23,38.0,23.1,3.0,24.0,13.1,-1.0,88,67,45,0.00,40.00,8,3,12,0.00
2013-3-24,29.0,25.8,20.0,19.0,15.4,11.0,80,65,53,0.00,40.00,9,5,16,0.00
2013-3-25,40.0,24.8,8.0,21.0,12.6,3.0,83,62,37,0.00,40.00,10,5,19,0.00
2013-3-26,41.0,32.5,25.0,24.0,17.8,12.0,77,57,30,0.00,40.00,6,4,14,0.00
2013-3-27,45.0,34.2,26.0,21.0,17.4,11.0,74,54,25,0.00,40.00,7,3,14,0.00
2013-3-28,50.0,40.0,23.0,14.0,11.4,8.0,66,34,20,0.00,40.00,8,4,13,0.00
2013-3-29,52.0,34.3,11.0,28.0,17.9,7.0,83,55,29,0.00,40.00,11,4,20,0.00
2013-3-30,54.0,42.7,34.0,39.0,26.0,-99.9,98,60,25,0.00,40.00,12,6,21,0.10
2013-3-31,36.0,28.6,21.0,22.0,13.6,1.0,78,54,34,0.00,40.00,17,11,31,0.02
2013-4-1,32.0,22.2,13.0,5.0,1.8,0.0,59,42,26,0.00,40.00,16,10,28,0.00
2013-4-2,32.0,21.8,11.0,8.0,2.1,-4.0,74,46,21,0.00,40.00,13,7,21,0.00
2013-4-3,42.0,23.7,1.0,23.0,5.5,-5.0,78,50,24,0.00,40.00,18,9,28,0.00
2013-4-4,39.0,34.8,26.0,29.0,20.1,10.0,84,56,35,0.00,40.00,15,9,28,0.00
2013-4-5,40.0,27.8,10.0,16.0,9.9,6.0,83,50,24,0.00,40.00,12,5,18,0.00
2013-4-6,33.0,30.1,25.0,32.0,27.4,9.0,99,90,41,0.00,40.00,14,7,19,0.32
2013-4-7,41.0,34.2,29.0,33.0,30.2,28.0,99,86,67,0.00,40.00,11,5,16,0.07
2013-4-8,42.0,35.2,31.0,34.0,31.7,30.0,98,87,71,0.00,40.00,7,4,12,0.17
2013-4-9,40.0,32.8,27.0,32.0,20.0,12.0,94,62,35,0.00,40.00,10,6,19,0.01
2013-4-10,46.0,33.5,18.0,16.0,11.1,8.0,77,42,22,0.00,40.00,11,6,16,0.00
2013-4-11,30.0,27.6,25.0,22.0,14.9,9.0,82,60,45,0.00,40.00,15,10,31,0.00
2013-4-12,29.0,24.8,21.0,22.0,20.5,18.0,90,84,72,0.00,40.00,12,9,22,0.07
2013-4-13,36.0,26.1,18.0,22.0,19.5,16.0,91,77,52,0.00,40.00,7,4,15,0.01
2013-4-14,42.0,24.9,3.0,27.0,15.6,-2.0,92,70,44,0.00,40.00,15,7,26,0.04
2013-4-15,36.0,32.8,29.0,32.0,29.8,26.0,96,89,76,0.00,40.00,14,9,27,0.14
2013-4-16,40.0,33.1,29.0,32.0,26.9,23.0,96,79,55,0.00,40.00,10,7,16,0.01
2013-4-17,33.0,31.5,29.0,28.0,25.6,23.0,94,79,72,0.00,40.00,10,6,19,0.00
2013-4-18,33.0,29.4,26.0,30.0,27.2,24.0,97,92,82,0.00,40.00,14,8,24,0.48
2013-4-19,28.0,24.1,12.0,27.0,19.7,6.0,97,84,56,0.00,40.00,17,12,35,0.43
2013-4-20,43.0,21.3,-7.0,12.0,4.1,-13.0,83,52,23,0.00,40.00,9,4,15,0.01
2013-4-21,36.0,28.6,11.0,32.0,21.9,7.0,97,77,53,0.00,40.00,19,10,27,0.11
2013-4-22,38.0,34.3,31.0,33.0,24.8,20.0,97,70,49,0.00,40.00,9,7,17,0.11
2013-4-23,42.0,34.2,24.0,26.0,16.7,10.0,87,53,27,0.00,40.00,11,6,19,0.00
2013-4-24,45.0,31.4,15.0,25.0,17.9,11.0,84,60,31,0.00,40.00,9,5,19,0.00
2013-4-25,46.0,35.1,22.0,29.0,22.2,16.0,94,64,31,0.00,40.00,11,6,20,0.00
2013-4-26,63.0,48.1,33.0,33.0,28.0,16.0,72,48,26,0.00,40.00,11,6,19,0.00
2013-4-27,69.0,51.8,29.0,34.0,28.0,25.0,86,46,21,0.00,40.00,14,8,24,0.00
2013-4-28,64.0,56.1,46.0,46.0,40.5,29.0,88,57,38,0.00,40.00,16,8,27,0.00
2013-4-29,67.0,48.0,28.0,42.0,27.7,19.0,92,54,16,0.00,40.00,14,5,21,0.00
2013-4-30,66.0,54.6,38.0,52.0,33.9,18.0,91,51,19,0.00,40.00,17,11,34,0.02
2013-5-1,50.0,36.0,31.0,33.0,23.8,20.0,73,61,49,0.00,40.00,14,9,25,0.01
2013-5-2,42.0,33.6,29.0,21.0,19.5,18.0,67,56,42,0.00,40.00,11,7,19,0.00
2013-5-3,36.0,31.2,27.0,30.0,23.4,19.0,95,74,57,0.00,40.00,10,7,16,0.06
2013-5-4,35.0,32.7,30.0,34.0,31.0,28.0,97,94,91,0.00,40.00,7,5,15,0.10
2013-5-5,50.0,39.9,33.0,41.0,36.7,33.0,99,89,69,0.00,40.00,6,4,10,0.01
2013-5-6,73.0,52.4,30.0,47.0,40.3,29.0,98,69,37,0.00,40.00,8,3,15,0.00
2013-5-7,76.0,57.4,34.0,47.0,39.0,32.0,95,58,23,0.00,40.00,12,5,22,0.00
2013-5-8,77.0,57.5,38.0,50.0,42.0,35.0,93,61,25,0.00,40.00,8,4,15,0.00
2013-5-9,58.0,46.6,35.0,50.0,32.7,20.0,98,65,23,0.00,40.00,12,7,19,0.00
2013-5-10,58.0,43.3,24.0,38.0,18.3,12.0,93,45,16,0.00,40.00,12,6,21,0.00
2013-5-11,43.0,36.3,34.0,40.0,25.4,-99.9,95,68,50,0.00,40.00,18,12,33,0.04
2013-5-12,48.0,38.0,28.0,20.0,16.4,13.0,66,43,25,0.00,40.00,12,8,23,0.00
2013-5-13,56.0,40.7,20.0,32.0,22.9,16.0,86,54,25,0.00,40.00,19,8,31,0.00
2013-5-14,80.0,55.2,31.0,48.0,36.6,24.0,87,54,27,0.00,40.00,20,9,33,0.00
2013-5-15,72.0,59.5,48.0,45.0,40.5,30.0,82,53,25,0.00,40.00,15,10,32,0.00
2013-5-16,70.0,47.5,32.0,39.0,15.1,-99.9,92,53,21,0.00,40.00,8,4,12,0.00
2013-5-17,65.0,52.6,45.0,39.0,28.4,-99.9,74,48,30,0.00,40.00,14,7,21,0.00
2013-5-18,55.0,51.8,47.0,54.0,46.8,33.0,98,85,51,0.00,40.00,9,6,15,0.35
2013-5-19,61.0,54.9,50.0,59.0,54.1,50.0,100,97,91,0.00,40.00,10,6,17,0.37
2013-5-20,55.0,51.5,48.0,53.0,49.9,47.0,95,94,89,0.00,40.00,13,11,28,1.12
2013-5-21,48.0,44.9,43.0,47.0,43.8,42.0,98,96,94,0.00,40.00,11,9,22,0.74
2013-5-22,67.0,52.9,44.0,45.0,40.4,30.0,97,69,27,0.00,40.00,14,10,23,0.25
2013-5-23,60.0,48.5,38.0,39.0,26.5,22.0,70,45,24,0.00,40.00,11,7,25,0.00
2013-5-24,69.0,51.8,29.0,34.0,28.5,25.0,90,48,19,0.00,40.00,8,5,15,0.00
2013-5-25,64.0,54.6,43.0,37.0,32.8,27.0,66,44,34,0.00,40.00,13,7,20,0.00
2013-5-26,68.0,53.9,34.0,38.0,33.0,25.0,90,50,28,0.00,40.00,13,6,22,0.00
2013-5-27,69.0,56.5,37.0,41.0,35.2,25.0,81,47,31,0.00,40.00,19,8,26,0.00
2013-5-28,69.0,56.3,42.0,47.0,40.4,33.0,85,57,42,0.00,40.00,12,7,20,0.00
2013-5-29,78.0,63.3,50.0,60.0,50.0,38.0,97,64,38,0.00,40.00,10,6,21,0.26
2013-5-30,74.0,64.9,59.0,65.0,61.0,58.0,97,87,69,0.00,40.00,13,7,21,0.45
2013-5-31,79.0,65.1,57.0,61.0,56.6,49.0,96,77,39,0.00,40.00,19,10,34,0.12
2013-6-1,58.0,48.6,42.0,54.0,46.7,39.0,97,93,82,0.00,40.00,11,6,22,0.47
2013-6-2,60.0,49.8,42.0,40.0,34.6,28.0,90,60,30,0.00,40.00,12,7,21,0.03
2013-6-3,66.0,50.2,31.0,40.0,31.1,24.0,96,56,21,0.00,40.00,8,4,15,0.00
2013-6-4,63.0,51.7,38.0,41.0,32.0,21.0,93,55,21,0.00,40.00,10,4,16,0.00
2013-6-5,56.0,50.7,45.0,46.0,37.9,25.0,79,63,36,0.00,40.00,13,6,24,0.00
2013-6-6,59.0,51.3,44.0,47.0,42.8,37.0,86,74,54,0.00,40.00,8,5,14,0.00
2013-6-7,69.0,52.6,35.0,47.0,39.9,34.0,97,67,37,0.00,40.00,7,3,14,0.00
2013-6-8,74.0,59.4,40.0,45.0,41.0,38.0,95,57,28,0.00,40.00,13,6,21,0.00
2013-6-9,68.0,54.2,40.0,53.0,47.1,39.0,95,80,43,0.00,40.00,15,6,23,0.20
2013-6-10,68.0,60.5,54.0,58.0,55.3,52.0,96,84,66,0.00,40.00,13,5,25,0.12
2013-6-11,76.0,65.2,54.0,59.0,49.6,41.0,98,64,30,0.00,40.00,10,5,17,0.05
2013-6-12,75.0,62.5,44.0,54.0,46.7,43.0,96,61,36,0.00,40.00,10,5,20,0.00
2013-6-13,77.0,63.8,51.0,51.0,45.6,41.0,86,56,28,0.00,40.00,10,6,16,0.00
2013-6-14,76.0,59.6,41.0,50.0,42.9,36.0,95,59,32,0.00,40.00,14,7,22,0.00
2013-6-15,76.0,64.1,52.0,63.0,52.0,35.0,97,68,30,0.00,40.00,10,6,17,0.19
2013-6-16,73.0,63.2,54.0,59.0,51.6,44.0,94,68,38,0.00,40.00,15,7,32,0.08
2013-6-17,63.0,53.6,48.0,56.0,48.4,43.0,98,84,58,0.00,40.00,10,5,17,0.21
2013-6-18,76.0,57.2,36.0,44.0,37.9,31.0,93,56,27,0.00,40.00,11,4,18,0.02
2013-6-19,81.0,61.1,38.0,61.0,48.5,35.0,92,67,36,0.00,40.00,10,5,17,0.02
2013-6-20,71.0,64.5,61.0,62.0,60.4,59.0,95,87,67,0.00,40.00,11,6,20,0.09
2013-6-22,65.0,62.1,59.0,60.0,58.5,57.0,94,88,84,0.00,40.00,11,7,21,0.04
2013-6-23,77.0,65.8,57.0,65.0,60.2,56.0,99,84,57,0.00,40.00,14,8,23,0.01
2013-6-24,84.0,71.6,58.0,58.0,54.4,49.0,92,59,32,0.00,40.00,12,8,22,0.01
2013-6-25,89.0,73.6,54.0,66.0,56.9,52.0,93,61,32,0.00,40.00,8,5,17,0.00
2013-6-26,81.0,69.8,62.0,67.0,62.2,57.0,97,78,60,0.00,40.00,7,4,25,0.97
2013-6-27,80.0,70.1,61.0,64.0,60.0,55.0,95,73,45,0.00,40.00,14,7,26,0.02
2013-6-28,72.0,64.6,61.0,67.0,61.9,58.0,98,91,75,0.00,40.00,9,6,18,0.43
2013-6-29,73.0,64.4,53.0,59.0,52.6,46.0,98,69,41,0.00,40.00,10,5,18,0.15
2013-6-30,81.0,66.1,48.0,60.0,49.7,45.0,97,63,28,0.00,40.00,9,4,16,0.00
2013-7-1,81.0,65.7,50.0,55.0,49.1,43.0,96,60,28,0.00,40.00,12,4,17,0.00
2013-7-2,84.0,64.7,45.0,49.0,44.4,35.0,93,54,29,0.00,40.00,9,4,15,0.00
2013-7-3,86.0,67.8,46.0,57.0,47.9,38.0,81,51,29,0.00,40.00,13,5,21,0.00
2013-7-4,84.0,70.2,51.0,60.0,53.0,47.0,89,58,33,0.00,40.00,12,7,22,0.00
2013-7-5,85.0,76.7,68.0,61.0,58.5,55.0,70,54,38,0.00,40.00,17,11,29,0.00
2013-7-6,83.0,70.9,65.0,70.0,66.1,61.0,98,86,61,0.00,40.00,11,4,16,0.18
2013-7-7,76.0,67.9,61.0,69.0,64.6,59.0,99,90,75,0.00,40.00,12,6,16,0.03
2013-7-8,82.0,66.4,58.0,66.0,60.4,57.0,98,83,42,0.00,40.00,7,4,12,0.00
2013-7-9,74.0,66.2,58.0,68.0,62.4,57.0,98,88,77,0.00,40.00,10,6,23,0.08
2013-7-10,74.0,63.3,55.0,59.0,49.0,-99.9,95,66,36,0.00,40.00,13,8,22,0.03
2013-7-11,81.0,66.8,48.0,60.0,54.6,47.0,98,69,41,0.00,40.00,11,6,18,0.00
2013-7-12,85.0,75.7,65.0,64.0,59.8,55.0,75,59,48,0.00,40.00,16,11,26,0.00
2013-7-13,84.0,73.7,67.0,71.0,66.2,60.0,93,78,60,0.00,40.00,14,8,25,0.27
2013-7-14,71.0,67.9,65.0,67.0,64.7,61.0,99,90,76,0.00,40.00,11,6,20,0.93
2013-7-15,72.0,68.5,66.0,70.0,66.9,65.0,99,95,87,0.00,40.00,9,4,11,0.14
2013-7-16,89.0,84.5,74.0,70.0,65.6,64.0,74,54,43,0.00,40.00,14,10,24,0.01
2013-7-17,82.0,74.1,64.0,69.0,66.1,61.0,98,77,64,0.00,40.00,9,4,14,0.00
2013-7-18,85.0,72.2,63.0,75.0,68.0,60.0,99,87,66,0.00,40.00,10,6,42,2.51
2013-7-19,76.0,68.5,62.0,67.0,59.0,48.0,99,75,38,0.00,40.00,14,8,25,1.54
2013-7-20,68.0,59.4,49.0,53.0,43.6,-99.9,83,59,43,0.00,40.00,9,5,16,0.00
2013-7-21,72.0,58.6,41.0,51.0,46.1,40.0,97,66,46,0.00,40.00,10,6,17,0.00
2013-7-22,76.0,64.3,54.0,65.0,54.0,42.0,91,70,59,0.00,40.00,16,11,27,0.00
2013-7-23,71.0,60.2,52.0,50.0,47.3,44.0,89,64,44,0.00,40.00,9,6,17,0.00
2013-7-24,72.0,61.0,46.0,57.0,50.9,44.0,97,73,48,0.00,40.00,9,4,16,0.00
2013-7-25,75.0,63.1,52.0,64.0,56.5,51.0,96,80,50,0.00,40.00,9,4,16,0.75
2013-7-26,57.0,52.1,47.0,56.0,49.3,43.0,96,90,77,0.00,40.00,13,8,24,0.84
2013-7-27,53.0,49.5,47.0,51.0,46.5,42.0,96,90,82,0.00,40.00,12,9,21,0.38
2013-7-28,69.0,56.4,49.0,51.0,47.7,44.0,97,76,42,0.00,40.00,10,6,21,0.24
2013-7-29,74.0,59.8,42.0,56.0,47.8,41.0,97,69,40,0.00,40.00,8,3,13,0.00
2013-7-30,73.0,61.9,52.0,62.0,56.9,50.0,95,84,69,0.00,40.00,9,5,16,0.06
2013-7-31,72.0,65.0,57.0,61.0,54.1,47.0,95,70,44,0.00,40.00,14,8,24,0.05
2013-8-1,72.0,61.3,53.0,57.0,53.1,49.0,96,76,50,0.00,40.00,10,6,19,0.36
2013-8-2,69.0,59.8,49.0,57.0,50.9,47.0,99,76,46,0.00,40.00,12,6,22,0.37
2013-8-3,69.0,57.6,46.0,54.0,48.3,45.0,97,74,46,0.00,40.00,10,5,19,0.00
2013-8-4,72.0,58.5,40.0,55.0,45.4,39.0,96,67,37,0.00,40.00,7,3,13,0.00
2013-8-5,68.0,60.9,55.0,61.0,56.2,50.0,96,85,73,0.00,40.00,7,4,11,0.04
2013-8-6,70.0,60.7,52.0,60.0,56.8,51.0,99,88,65,0.00,40.00,9,4,13,0.01
2013-8-7,68.0,60.3,51.0,58.0,48.6,43.0,98,69,42,0.00,40.00,12,7,24,0.01
2013-8-8,67.0,58.0,49.0,51.0,47.7,45.0,96,71,49,0.00,40.00,12,5,22,0.00
2013-8-9,65.0,56.6,48.0,55.0,50.2,46.0,95,80,61,0.00,40.00,13,7,21,0.00
2013-8-10,73.0,62.2,47.0,57.0,51.3,46.0,97,71,44,0.00,40.00,9,4,13,0.00
2013-8-11,72.0,60.7,50.0,57.0,53.0,48.0,96,78,48,0.00,40.00,8,3,16,0.03
2013-8-12,68.0,58.3,48.0,57.0,48.7,43.0,98,74,43,0.00,40.00,11,5,20,0.01
2013-8-13,64.0,54.6,43.0,52.0,43.9,-99.9,96,71,50,0.00,40.00,8,4,15,0.00
2013-8-14,72.0,54.6,36.0,51.0,43.0,35.0,96,71,39,0.00,40.00,8,3,16,0.00
2013-8-15,77.0,54.8,42.0,56.0,36.8,-99.9,95,66,34,0.00,40.00,6,2,13,0.00
2013-8-16,81.0,63.1,45.0,62.0,50.3,-99.9,95,70,44,0.00,40.00,7,4,13,0.00
2013-8-17,80.0,67.5,54.0,58.0,53.6,-99.9,92,65,46,0.00,40.00,14,8,25,0.00
2013-8-18,79.0,70.2,62.0,61.0,57.3,54.0,79,65,53,0.00,40.00,16,9,23,0.00
2013-8-19,86.0,70.3,63.0,68.0,52.2,-99.9,93,68,45,0.00,40.00,9,7,16,0.39
2013-8-20,88.0,75.6,67.0,72.0,65.6,-99.9,95,76,53,0.00,40.00,13,8,20,0.01
2013-8-21,82.0,73.1,55.0,71.0,59.3,46.0,93,66,35,0.00,40.00,13,8,29,0.17
2013-8-22,77.0,65.6,49.0,54.0,49.2,46.0,92,60,34,0.00,40.00,9,4,15,0.04
2013-8-23,80.0,63.5,44.0,57.0,49.5,43.0,96,66,37,0.00,40.00,8,4,14,0.00
2013-8-24,85.0,72.4,56.0,68.0,60.3,-99.9,86,69,54,0.00,40.00,16,10,26,0.00
2013-8-25,92.0,81.3,75.0,74.0,70.2,65.0,87,71,42,0.00,40.00,12,7,21,0.00
2013-8-26,91.0,76.9,62.0,72.0,66.1,61.0,97,72,40,0.00,40.00,11,3,19,0.00
2013-8-27,87.0,73.3,62.0,72.0,66.5,62.0,99,82,48,0.00,40.00,5,2,9,0.06
2013-8-28,90.0,82.1,67.0,68.0,66.6,65.0,94,62,46,0.00,40.00,10,7,19,0.36
2013-8-29,76.0,68.3,61.0,70.0,65.2,61.0,99,90,76,0.00,40.00,12,5,21,0.68
2013-8-30,80.0,70.3,63.0,68.0,63.0,59.0,96,79,54,0.00,40.00,8,6,14,0.01
2013-8-31,84.0,67.3,60.0,67.0,59.9,-99.9,95,81,55,0.00,40.00,11,7,26,0.09
2013-9-1,67.0,60.1,51.0,62.0,56.5,48.0,98,88,76,0.00,40.00,12,7,22,0.18
2013-9-2,65.0,53.4,45.0,49.0,46.3,43.0,95,79,54,0.00,40.00,8,5,15,0.00
2013-9-3,79.0,58.8,37.0,61.0,49.2,35.0,97,75,44,0.00,40.00,10,5,18,0.00
2013-9-4,69.0,60.4,46.0,61.0,45.8,35.0,84,62,32,0.00,40.00,8,5,15,0.00
2013-9-5,77.0,58.1,37.0,51.0,44.2,36.0,95,65,35,0.00,40.00,8,4,15,0.00
2013-9-6,82.0,69.1,56.0,69.0,61.2,48.0,96,77,60,0.00,40.00,9,5,15,0.00
2013-9-7,78.0,67.1,53.0,68.0,57.8,-99.9,99,77,46,0.00,40.00,10,4,17,0.01
2013-9-8,68.0,56.0,43.0,53.0,48.9,42.0,96,79,48,0.00,40.00,12,5,19,0.01
2013-9-9,64.0,61.1,57.0,64.0,59.0,52.0,99,93,80,0.00,40.00,7,4,14,0.59
2013-9-10,74.0,64.8,56.0,67.0,62.4,55.0,99,92,67,0.00,40.00,10,5,19,0.21
2013-9-11,71.0,60.4,51.0,61.0,53.5,47.0,99,82,43,0.00,40.00,13,7,25,0.32
2013-9-12,59.0,52.3,40.0,52.0,45.9,38.0,99,81,54,0.00,40.00,12,6,23,0.32
2013-9-13,65.0,50.5,36.0,49.0,41.8,35.0,97,75,48,0.00,40.00,8,4,15,0.00
2013-9-14,71.0,57.2,48.0,56.0,48.1,-99.9,92,75,55,0.00,40.00,10,8,20,0.13
2013-9-15,58.0,51.3,36.0,53.0,44.2,35.0,98,80,48,0.00,40.00,9,5,20,0.36
2013-9-16,65.0,47.5,29.0,42.0,35.7,28.0,96,69,37,0.00,40.00,8,4,13,0.01
2013-9-17,68.0,55.1,40.0,48.0,44.6,37.0,94,70,45,0.00,40.00,15,9,24,0.00
2013-9-18,62.0,56.9,56.0,61.0,53.1,49.0,97,87,74,0.00,40.00,9,8,16,0.00
2013-9-19,70.0,65.4,62.0,67.0,64.3,61.0,99,96,89,0.00,40.00,9,5,19,0.38
2013-9-20,63.0,53.4,47.0,62.0,51.1,44.0,99,92,74,0.00,40.00,12,8,21,0.33
2013-9-21,54.0,43.6,33.0,46.0,36.0,-99.9,97,78,52,0.00,40.00,9,5,19,0.11
2013-9-22,58.0,42.2,28.0,44.0,36.2,27.0,96,81,54,0.00,40.00,15,7,20,0.00
2013-9-23,69.0,55.7,45.0,51.0,46.8,42.0,93,74,48,0.00,40.00,17,10,25,0.00
2013-9-24,73.0,58.9,44.0,53.0,49.1,43.0,96,73,43,0.00,40.00,10,7,17,0.00
2013-9-25,73.0,56.5,40.0,54.0,46.7,39.0,96,74,40,0.00,40.00,10,4,18,0.00
2013-9-26,72.0,57.8,50.0,54.0,50.6,46.0,97,79,54,0.00,40.00,15,9,22,0.00
2013-9-27,74.0,66.2,58.0,60.0,55.4,49.0,76,69,52,0.00,40.00,18,12,30,0.00
2013-9-28,70.0,60.1,46.0,60.0,51.0,-99.9,95,75,62,0.00,40.00,19,14,32,0.34
2013-9-29,71.0,54.2,42.0,46.0,42.8,40.0,95,69,35,0.00,40.00,12,8,21,0.06
2013-9-30,71.0,62.4,54.0,51.0,47.5,44.0,69,59,45,0.00,40.00,13,10,21,0.00
2013-10-1,60.0,56.5,53.0,34.0,33.6,33.0,49,42,37,0.00,40.00,8,7,18,0.00
2013-10-2,67.0,54.0,43.0,48.0,38.2,34.0,89,58,31,0.00,40.00,9,6,15,0.02
2013-10-3,62.0,51.2,39.0,50.0,44.4,38.0,97,80,51,0.00,40.00,8,4,15,0.09
2013-10-4,56.0,51.5,49.0,50.0,46.1,40.0,96,82,64,0.00,40.00,11,7,18,0.12
2013-10-5,50.0,45.3,44.0,45.0,42.5,40.0,95,90,70,0.00,40.00,12,9,21,0.28
2013-10-6,47.0,43.6,34.0,44.0,41.9,33.0,97,94,85,0.00,40.00,11,6,17,0.91
2013-10-7,58.0,43.5,32.0,45.0,36.4,31.0,98,80,45,0.00,40.00,11,5,18,0.01
2013-10-8,73.0,54.6,32.0,44.0,39.0,30.0,95,61,33,0.00,40.00,19,9,30,0.00
2013-10-9,73.0,62.6,49.0,51.0,46.1,43.0,91,56,40,0.00,40.00,13,8,20,0.00
2013-10-10,72.0,59.9,44.0,49.0,45.0,42.0,95,62,36,0.00,40.00,14,8,24,0.00
2013-10-11,70.0,60.6,54.0,54.0,48.5,42.0,80,65,51,0.00,40.00,21,12,33,0.03
2013-10-12,61.0,52.9,45.0,53.0,44.6,-99.9,95,76,61,0.00,40.00,20,12,31,0.07
2013-10-13,55.0,44.5,31.0,43.0,35.5,28.0,95,75,42,0.00,40.00,11,6,20,0.09
2013-10-14,52.0,40.3,28.0,42.0,33.3,26.0,94,79,48,0.00,40.00,8,3,15,0.34
2013-10-15,44.0,42.3,41.0,43.0,40.6,39.0,96,94,90,0.00,40.00,12,8,25,0.75
2013-10-16,54.0,43.5,35.0,39.0,34.2,30.0,95,72,44,0.00,40.00,7,5,12,0.01
2013-10-17,46.0,39.7,30.0,44.0,37.5,27.0,96,92,84,0.00,40.00,7,3,15,0.29
2013-10-18,47.0,39.2,31.0,38.0,32.0,27.0,96,78,46,0.00,40.00,8,5,15,0.14
2013-10-19,44.0,34.4,28.0,35.0,29.4,-99.9,96,86,62,0.00,40.00,7,4,14,0.00
2013-10-20,39.0,34.2,32.0,34.0,32.1,30.0,96,92,79,0.00,40.00,9,3,17,0.09
2013-10-21,33.0,30.5,27.0,32.0,27.8,23.0,96,89,75,0.00,40.00,11,9,22,0.06
2013-10-22,36.0,32.0,29.0,31.0,25.7,23.0,93,78,60,0.00,40.00,11,5,20,0.01
2013-10-23,33.0,30.7,29.0,28.0,26.1,22.0,93,84,67,0.00,40.00,10,6,17,0.01
2013-10-24,39.0,33.0,29.0,31.0,26.9,23.0,97,79,55,0.00,40.00,9,6,16,0.02
2013-10-25,44.0,34.2,26.0,38.0,29.2,25.0,97,83,55,0.00,40.00,16,8,33,0.03
2013-10-26,40.0,35.8,33.0,37.0,28.1,-99.9,91,76,55,0.00,40.00,13,8,23,0.03
2013-10-27,41.0,34.5,27.0,29.0,25.8,14.0,83,70,57,0.00,40.00,11,8,22,0.00
2013-10-28,37.0,27.9,21.0,19.0,13.4,-99.9,79,59,36,0.00,40.00,11,4,18,0.00
2013-10-29,40.0,27.7,15.0,25.0,18.5,12.0,88,70,43,0.00,40.00,9,3,14,0.00
2013-10-30,41.0,34.6,26.0,38.0,31.5,23.0,99,89,79,0.00,40.00,9,3,15,0.00
2013-10-31,42.0,39.8,37.0,42.0,39.6,37.0,100,99,97,0.00,40.00,6,3,10,0.00
2013-11-1,39.0,36.7,31.0,38.0,34.9,30.0,98,94,79,0.00,40.00,9,5,16,0.02
2013-11-2,42.0,34.0,27.0,34.0,25.9,-99.9,95,77,52,0.00,40.00,7,4,11,0.01
2013-11-3,46.0,36.2,26.0,33.0,29.8,25.0,99,79,50,0.00,40.00,17,10,26,0.00
2013-11-4,43.0,40.1,33.0,40.0,34.4,30.0,96,81,65,0.00,40.00,16,12,27,0.19
2013-11-5,35.0,31.3,28.0,30.0,24.8,21.0,91,77,62,0.00,40.00,10,7,16,0.02
2013-11-6,29.0,28.1,27.0,24.0,21.5,20.0,84,76,71,0.00,40.00,9,6,16,0.00
2013-11-7,32.0,29.6,27.0,27.0,22.8,16.0,90,76,58,0.00,40.00,8,6,15,0.00
2013-11-8,38.0,28.9,14.0,32.0,21.4,11.0,99,75,53,0.00,40.00,13,7,20,0.18
2013-11-9,35.0,32.4,32.0,34.0,31.1,-99.9,100,99,98,0.00,40.00,10,7,19,0.23
2013-11-10,36.0,31.2,20.0,33.0,28.8,12.0,100,91,72,0.00,40.00,13,9,25,0.02
2013-11-11,22.0,16.6,9.0,12.0,6.4,3.0,81,64,50,0.00,40.00,14,10,23,0.02
2013-11-12,29.0,19.3,9.0,9.0,6.0,1.0,81,58,32,0.00,40.00,11,8,19,0.00
2013-11-13,45.0,33.0,20.0,31.0,21.4,6.0,79,63,50,0.00,40.00,14,10,25,0.00
2013-11-14,37.0,32.7,28.0,30.0,27.7,26.0,96,83,66,0.00,40.00,5,3,10,0.00
2013-11-15,46.0,38.0,32.0,35.0,31.5,25.0,99,79,47,0.00,40.00,10,6,15,0.02
2013-11-16,44.0,40.7,39.0,40.0,35.9,-99.9,99,86,75,0.00,40.00,12,8,21,0.15
2013-11-17,40.0,35.4,27.0,40.0,34.4,23.0,100,96,81,0.00,40.00,14,7,25,0.22
2013-11-18,27.0,23.0,21.0,23.0,16.3,14.0,88,75,66,0.00,40.00,15,11,27,0.01
2013-11-19,37.0,28.1,18.0,22.0,19.2,14.0,85,70,52,0.00,40.00,19,10,30,0.00
2013-11-20,43.0,39.2,35.0,27.0,23.5,21.0,70,53,43,0.00,40.00,16,9,31,0.00
2013-11-21,35.0,23.6,15.0,29.0,17.0,8.0,91,75,67,0.00,40.00,12,8,21,0.00
2013-11-22,19.0,13.0,7.0,10.0,5.1,-3.0,85,71,55,0.00,40.00,13,9,22,0.00
2013-11-23,10.0,4.4,-4.0,-1.0,-6.9,-99.9,76,61,46,0.00,40.00,11,8,24,0.00
2013-11-24,30.0,11.4,-5.0,17.0,1.0,-10.0,78,63,47,0.00,40.00,18,10,33,0.00
2013-11-25,34.0,29.7,18.0,28.0,20.9,6.0,87,70,55,0.00,40.00,16,12,31,0.00
2013-11-26,18.0,10.2,5.0,12.0,2.6,-3.0,86,71,58,0.00,40.00,12,8,22,0.02
2013-11-27,18.0,13.2,4.0,12.0,7.7,-1.0,87,78,63,0.00,40.00,6,4,11,0.01
2013-11-28,20.0,14.9,5.0,14.0,10.7,1.0,89,83,72,0.00,40.00,6,3,10,0.02
2013-11-29,22.0,17.0,-3.0,18.0,11.5,-7.0,84,79,72,0.00,40.00,12,7,19,0.00
2013-11-30,29.0,25.2,22.0,23.0,18.9,-99.9,91,80,72,0.00,40.00,10,5,16,0.00
2013-12-1,26.0,23.5,22.0,23.0,21.4,20.0,94,91,88,0.00,40.00,5,3,9,0.00
2013-12-2,29.0,25.4,21.0,28.0,23.3,19.0,97,92,85,0.00,40.00,7,4,12,0.12
2013-12-3,30.0,24.4,14.0,29.0,21.7,11.0,97,89,83,0.00,40.00,14,9,27,0.08
2013-12-4,19.0,16.0,13.0,16.0,12.7,9.0,90,87,84,0.00,40.00,12,9,24,0.20
2013-12-5,15.0,8.5,0.0,12.0,3.2,-6.0,88,79,73,0.00,40.00,17,12,30,0.08
2013-12-6,2.0,-4.9,-12.0,-6.0,-12.3,-19.0,76,69,59,0.00,40.00,12,8,20,0.00
2013-12-7,-2.0,-12.5,-18.0,-13.0,-21.9,-99.9,71,65,57,0.00,40.00,8,6,16,0.00
2013-12-8,6.0,-5.1,-26.0,2.0,-19.0,-99.9,82,71,58,0.00,40.00,5,3,10,0.00
2013-12-9,6.0,-4.3,-14.0,2.0,-11.4,-21.0,82,71,58,0.00,40.00,12,6,22,0.00
2013-12-10,-2.0,-10.7,-20.0,-13.0,-18.9,-28.0,72,66,56,0.00,40.00,10,5,17,0.00
2013-12-11,-2.0,-11.8,-21.0,-13.0,-20.4,-29.0,72,65,57,0.00,40.00,11,7,18,0.00
2013-12-12,5.0,-3.9,-19.0,-6.0,-11.9,-27.0,73,68,57,0.00,40.00,10,6,17,0.00
2013-12-13,-3.0,-9.3,-13.0,-14.0,-18.6,-21.0,69,63,49,0.00,40.00,7,4,14,0.00
2013-12-14,5.0,-2.9,-9.0,-1.0,-11.1,-99.9,80,70,62,0.00,40.00,8,4,14,0.01
2013-12-15,-3.0,-12.3,-25.0,-11.0,-20.8,-33.0,76,65,55,0.00,40.00,9,5,14,0.01
2013-12-16,6.0,1.0,-18.0,2.0,-5.0,-26.0,83,75,67,0.00,40.00,13,7,19,0.00
2013-12-17,16.0,7.3,-5.0,13.0,1.7,-10.0,88,77,68,0.00,40.00,14,7,22,0.00
2013-12-18,23.0,3.6,-14.0,10.0,-2.9,-21.0,86,74,58,0.00,40.00,9,4,16,0.00
2013-12-19,13.0,4.2,-1.0,7.0,-3.8,-8.0,85,69,54,0.00,40.00,12,6,20,0.00
2013-12-20,19.0,3.4,-14.0,9.0,-3.5,-21.0,83,73,64,0.00,40.00,7,2,13,0.00
2013-12-21,17.0,9.0,-1.0,11.0,3.3,-99.9,84,80,74,0.00,40.00,8,3,14,0.00
2013-12-22,7.0,1.0,-5.0,2.0,-5.0,-11.0,79,75,70,0.00,40.00,8,6,14,0.01
2013-12-23,-1.0,-8.3,-18.0,-11.0,-16.8,-25.0,73,66,54,0.00,40.00,7,5,12,0.01
2013-12-24,13.0,8.4,-1.0,4.0,1.2,-9.0,80,72,65,0.00,40.00,15,11,25,0.00
2013-12-25,17.0,8.0,2.0,7.0,1.5,-6.0,81,75,63,0.00,40.00,9,7,19,0.00
2013-12-26,12.0,-3.8,-19.0,-1.0,-12.1,-26.0,78,67,51,0.00,40.00,6,2,10,0.00
2013-12-27,33.0,24.7,1.0,28.0,21.0,-4.0,92,86,80,0.00,40.00,12,8,21,0.00
2013-12-28,30.0,20.2,0.0,28.0,16.1,-99.9,96,88,75,0.00,40.00,12,6,22,0.00
2013-12-29,0.0,-13.8,-29.0,-6.0,-22.7,-37.0,75,64,50,0.00,40.00,10,6,19,0.00
2013-12-30,-2.0,-8.7,-31.0,-16.0,-53.6,-99.9,67,59,48,0.00,40.00,6,2,12,0.00
2013-12-31,-9.0,-15.6,-29.0,-23.0,-37.6,-99.9,66,57,48,0.00,40.00,9,4,14,0.00
2014-1-1,-2.0,-14.7,-35.0,-17.0,-52.3,-99.9,68,57,45,0.00,40.00,4,1,6,0.00
2014-1-2,-1.0,-10.9,-30.0,-19.0,-33.4,-99.9,64,53,40,0.00,40.00,5,2,7,0.00